Regional Weather Roundup
Issued by NWS

Home | Current Version | Previous Version | Graphics & Text | Print | Product List | Glossary On
Versions: 1 2 3 4 5 6 7 8 9 10 11 12 13 14 15 16 17 18 19 20 21 22 23 24 25 26 27 28 29 30 31 32 33 34 35 36 37 38 39 40 41 42 43 44 45 46 47 48 49 50
000
ASUS43 KTOP 251908
RWRKS

WEATHER ROUNDUP FOR KANSAS
NATIONAL WEATHER SERVICE GOODLAND KS
100 PM CST THU DEC 25 2014

NOTE:  "FAIR" INDICATES FEW OR NO CLOUDS BELOW 12,000 FEET WITH NO
SIGNIFICANT WEATHER AND/OR OBSTRUCTIONS TO VISIBILITY.

KSZ001>006-013>018-027>032-041>047-252000-
NORTHWEST KANSAS

CITY           SKY/WX    TMP DP  RH WIND       PRES   REMARKS
GOODLAND       MOSUNNY   45  26  47 N9        29.42F
HAYS           SUNNY     54  25  32 S15       29.44F
HILL CITY      SUNNY     48  24  39 SW10      29.44F
RUSSELL        SUNNY     51  26  37 S23G30    29.45F
$$

KSZ061>065-074>080-084>089-252000-
SOUTHWEST KANSAS

CITY           SKY/WX    TMP DP  RH WIND       PRES   REMARKS
DODGE CITY     MOSUNNY   53  20  27 S23G30    29.48F
ELKHART          N/A     62  23  22 SW17        N/A
GARDEN CITY    MOSUNNY   52  27  38 S10       29.46S
GREAT BEND     SUNNY     54  27  35 S22G30    29.49F
LIBERAL        CLOUDY    54  25  32 S22       29.52F
PRATT          PTSUNNY   52  25  35 S22G29    29.54F
$$

KSZ066>073-081>083-090>101-252000-
SOUTHEAST KANSAS

CITY           SKY/WX    TMP DP  RH WIND       PRES   REMARKS
CHANUTE        MOSUNNY   52  31  44 S29G38    29.76F
COFFEYVILLE    MOSUNNY   54  30  40 S25G36    29.78F
HUTCHINSON     MOSUNNY   51  27  39 S26G39    29.57F
MEDICINE LODGE   N/A     53  25  33 S23G38    29.57F
NEWTON         SUNNY     50  27  40 S31G38    29.61R
PARSONS        MOSUNNY   52  30  43 S17G29    29.79F
WICHITA INTL   PTSUNNY   55  27  34 S33G44    29.60F
WICHITA JABRA  MOSUNNY   54  25  32 S35G46    29.60F
WICHITA MCCONL MOSUNNY   54  27  35 S28G43    29.62F
WINFIELD       SUNNY     55  28  35 S24G35    29.68F
$$

KSZ007>012-019>026-033>040-048>060-102>105-252000-
NORTHEAST KANSAS

CITY           SKY/WX    TMP DP  RH WIND       PRES   REMARKS
CONCORDIA      SUNNY     47  29  49 S20G30    29.53F
EMPORIA        MOSUNNY   53  29  39 S29G36    29.64F
LAWRENCE       SUNNY     51  29  42 S23G33    29.69F
MANHATTAN      SUNNY     53  28  38 S23G35    29.60F
MARYSVILLE     SUNNY     50  30  46 S18G26    29.57F
OLATHE IND     SUNNY     51  30  44 S24G37    29.72F
OLATHE EXE     SUNNY     51  29  42 S26G33    29.72F
SALINA         SUNNY     50  30  46 S21G32    29.55F
TOPEKA BILLARD MOSUNNY   51  29  42 S24G36    29.65F
TOPEKA FORBES  MOSUNNY   51  30  44 S25G36    29.63F
$$



USA.gov is the U.S. government's official web portal to all federal, state and local government web resources and services.